Time,TemperatureF,DewpointF,PressureIn,WindDirection,WindDirectionDegrees,WindSpeedMPH,WindSpeedGustMPH,Humidity,HourlyPrecipIn,Conditions,Clouds,dailyrainin,SolarRadiationWatts/m^2,SoftwareType,DateUTC
2013-06-27 00:01:00,81.5,75.1,29.99,South,178,3.0,3.0,81,0.00,,SCT024,0.03,0.00,VWS V14.00,2013-06-27 04:01:00,
2013-06-27 00:02:00,81.5,75.1,29.99,South,178,6.0,7.0,81,0.00,,SCT024,0.00,0.00,VWS V14.00,2013-06-27 04:02:00,
2013-06-27 00:07:00,81.5,75.1,29.98,South,176,4.0,6.0,81,0.00,,SCT024,0.00,0.00,VWS V14.00,2013-06-27 04:07:00,
2013-06-27 00:12:00,81.5,75.1,29.98,South,174,0.0,1.0,81,0.00,,SCT024,0.00,0.00,VWS V14.00,2013-06-27 04:12:00,
2013-06-27 00:17:00,81.4,75.4,29.98,South,174,0.0,0.0,82,0.00,,SCT024,0.00,0.00,VWS V14.00,2013-06-27 04:17:00,
2013-06-27 00:22:00,81.3,75.3,29.98,South,174,0.0,0.0,82,0.00,,SCT024,0.00,0.00,VWS V14.00,2013-06-27 04:22:00,
2013-06-27 00:27:00,81.2,75.2,29.98,South,174,1.0,1.0,82,0.00,,SCT024,0.00,0.00,VWS V14.00,2013-06-27 04:27:00,
2013-06-27 00:32:00,81.1,75.1,29.98,South,174,0.0,0.0,82,0.00,,SCT024,0.00,0.00,VWS V14.00,2013-06-27 04:32:00,
2013-06-27 00:37:00,81.0,75.0,29.98,South,174,0.0,4.0,82,0.00,,SCT024,0.00,0.00,VWS V14.00,2013-06-27 04:37:00,
2013-06-27 00:42:00,81.0,75.0,29.98,South,173,1.0,5.0,82,0.00,,SCT024,0.00,0.00,VWS V14.00,2013-06-27 04:42:00,
2013-06-27 00:47:00,81.0,75.0,29.98,South,173,3.0,4.0,82,0.00,,SCT024,0.00,0.00,VWS V14.00,2013-06-27 04:47:00,
2013-06-27 00:52:00,81.0,75.0,29.98,South,173,2.0,4.0,82,0.00,,SCT024,0.00,0.00,VWS V14.00,2013-06-27 04:52:00,
2013-06-27 00:57:00,81.0,75.0,29.98,South,173,0.0,0.0,82,0.00,,SCT024,0.00,0.00,VWS V14.00,2013-06-27 04:57:00,
2013-06-27 01:02:00,81.0,75.0,29.98,South,173,0.0,0.0,82,0.00,,SCT024,0.00,0.00,VWS V14.00,2013-06-27 05:02:00,
2013-06-27 01:07:00,81.0,75.0,29.98,South,173,0.0,1.0,82,0.00,,SCT024,0.00,0.00,VWS V14.00,2013-06-27 05:07:00,
2013-06-27 01:12:00,81.0,75.0,29.98,South,173,0.0,0.0,82,0.00,,SCT024,0.00,0.00,VWS V14.00,2013-06-27 05:12:00,
2013-06-27 01:17:00,81.0,75.0,29.97,South,173,0.0,3.0,82,0.00,,SCT024,0.00,0.00,VWS V14.00,2013-06-27 05:17:00,
2013-06-27 01:22:00,80.9,74.9,29.97,South,173,0.0,0.0,82,0.00,,SCT024,0.00,0.00,VWS V14.00,2013-06-27 05:22:00,
2013-06-27 01:27:00,80.9,75.3,29.97,South,173,0.0,0.0,83,0.00,,SCT024,0.00,0.00,VWS V14.00,2013-06-27 05:27:00,
2013-06-27 01:32:00,80.9,75.3,29.97,South,173,0.0,0.0,83,0.00,,SCT024,0.00,0.00,VWS V14.00,2013-06-27 05:32:00,
2013-06-27 01:37:00,80.9,75.3,29.96,South,173,0.0,0.0,83,0.00,,SCT024,0.00,0.00,VWS V14.00,2013-06-27 05:37:00,
2013-06-27 01:42:00,80.8,75.2,29.96,South,173,5.0,5.0,83,0.00,,SCT024,0.00,0.00,VWS V14.00,2013-06-27 05:42:00,
2013-06-27 01:47:00,80.8,75.2,29.95,South,173,0.0,0.0,83,0.00,,SCT024,0.00,0.00,VWS V14.00,2013-06-27 05:47:00,
2013-06-27 01:52:00,80.7,75.1,29.96,South,173,0.0,0.0,83,0.00,,SCT024,0.00,0.00,VWS V14.00,2013-06-27 05:52:00,
2013-06-27 01:57:00,80.7,75.1,29.96,South,173,0.0,0.0,83,0.00,,SCT024,0.00,0.00,VWS V14.00,2013-06-27 05:57:00,
2013-06-27 02:02:00,80.6,75.0,29.96,South,173,0.0,2.0,83,0.00,,SCT024,0.00,0.00,VWS V14.00,2013-06-27 06:02:00,
2013-06-27 02:07:00,80.6,75.0,29.96,South,173,0.0,0.0,83,0.00,,SCT024,0.00,0.00,VWS V14.00,2013-06-27 06:07:00,
2013-06-27 02:12:00,80.6,75.0,29.96,South,173,0.0,0.0,83,0.00,,SCT024,0.00,0.00,VWS V14.00,2013-06-27 06:12:00,
2013-06-27 02:17:00,80.5,74.9,29.96,South,173,0.0,0.0,83,0.00,,SCT024,0.00,0.00,VWS V14.00,2013-06-27 06:17:00,
2013-06-27 02:22:00,80.5,74.9,29.96,South,173,0.0,0.0,83,0.00,,SCT024,0.00,0.00,VWS V14.00,2013-06-27 06:22:00,
2013-06-27 02:27:00,80.5,74.9,29.96,South,173,0.0,0.0,83,0.00,,SCT024,0.00,0.00,VWS V14.00,2013-06-27 06:27:00,
2013-06-27 02:32:00,80.5,74.9,29.96,South,173,0.0,0.0,83,0.00,,SCT024,0.00,0.00,VWS V14.00,2013-06-27 06:32:00,
2013-06-27 02:37:00,80.5,74.9,29.96,South,173,0.0,0.0,83,0.00,,SCT024,0.00,0.00,VWS V14.00,2013-06-27 06:37:00,
2013-06-27 02:42:00,80.4,74.8,29.96,South,173,0.0,0.0,83,0.00,,SCT024,0.00,0.00,VWS V14.00,2013-06-27 06:42:00,
2013-06-27 02:47:00,80.4,75.1,29.96,South,173,0.0,0.0,84,0.00,,SCT024,0.00,0.00,VWS V14.00,2013-06-27 06:47:00,
2013-06-27 02:53:00,80.4,75.1,29.96,South,173,0.0,0.0,84,0.00,,SCT024,0.00,0.00,VWS V14.00,2013-06-27 06:53:00,
2013-06-27 02:58:00,80.5,75.6,29.96,South,173,0.0,0.0,85,0.00,,SCT024,0.00,0.00,VWS V14.00,2013-06-27 06:58:00,
2013-06-27 03:03:00,80.4,75.5,29.96,South,173,0.0,0.0,85,0.00,,SCT024,0.00,0.00,VWS V14.00,2013-06-27 07:03:00,
2013-06-27 03:08:00,80.3,75.4,29.96,South,173,0.0,0.0,85,0.00,,SCT024,0.00,0.00,VWS V14.00,2013-06-27 07:08:00,
2013-06-27 03:13:00,80.1,75.2,29.96,South,173,0.0,0.0,85,0.00,,SCT024,0.00,0.00,VWS V14.00,2013-06-27 07:13:00,
2013-06-27 03:18:00,80.0,75.1,29.96,South,173,0.0,0.0,85,0.00,,SCT024,0.00,0.00,VWS V14.00,2013-06-27 07:18:00,
2013-06-27 03:23:00,80.0,75.4,29.96,South,173,0.0,0.0,86,0.00,,SCT024,0.00,0.00,VWS V14.00,2013-06-27 07:23:00,
2013-06-27 03:28:00,79.9,75.3,29.96,South,173,0.0,1.0,86,0.00,,SCT024,0.00,0.00,VWS V14.00,2013-06-27 07:28:00,
2013-06-27 03:33:00,79.7,74.8,29.96,South,173,0.0,0.0,85,0.00,,SCT024,0.00,0.00,VWS V14.00,2013-06-27 07:33:00,
2013-06-27 03:38:00,79.6,75.1,29.96,South,173,0.0,0.0,86,0.00,,SCT024,0.00,0.00,VWS V14.00,2013-06-27 07:38:00,
2013-06-27 03:43:00,79.6,75.1,29.96,South,173,0.0,0.0,86,0.00,,SCT024,0.00,0.00,VWS V14.00,2013-06-27 07:43:00,
2013-06-27 03:48:00,79.5,74.9,29.95,South,173,0.0,0.0,86,0.00,,SCT024,0.00,0.00,VWS V14.00,2013-06-27 07:48:00,
2013-06-27 03:53:00,79.4,74.8,29.95,South,173,0.0,0.0,86,0.00,,SCT024,0.00,0.00,VWS V14.00,2013-06-27 07:53:00,
2013-06-27 03:58:00,79.3,74.8,29.95,South,173,0.0,0.0,86,0.00,,SCT024,0.00,0.00,VWS V14.00,2013-06-27 07:58:00,
2013-06-27 04:03:00,79.2,74.7,29.95,South,173,0.0,0.0,86,0.00,,SCT024,0.00,0.00,VWS V14.00,2013-06-27 08:03:00,
2013-06-27 04:08:00,79.1,74.6,29.95,South,173,0.0,0.0,86,0.00,,SCT024,0.00,0.00,VWS V14.00,2013-06-27 08:08:00,
2013-06-27 04:13:00,79.0,74.5,29.95,South,173,0.0,0.0,86,0.00,,SCT024,0.00,0.00,VWS V14.00,2013-06-27 08:13:00,
2013-06-27 04:18:00,79.0,74.5,29.95,South,173,0.0,0.0,86,0.00,,SCT024,0.00,0.00,VWS V14.00,2013-06-27 08:18:00,
2013-06-27 04:23:00,79.1,74.9,29.95,South,173,0.0,0.0,87,0.00,,SCT024,0.00,0.00,VWS V14.00,2013-06-27 08:23:00,
2013-06-27 04:28:00,79.1,74.9,29.95,South,173,0.0,0.0,87,0.00,,SCT024,0.00,0.00,VWS V14.00,2013-06-27 08:28:00,
2013-06-27 04:33:00,79.1,74.9,29.94,South,173,0.0,0.0,87,0.00,,SCT024,0.00,0.00,VWS V14.00,2013-06-27 08:33:00,
2013-06-27 04:38:00,79.0,74.8,29.94,South,173,0.0,0.0,87,0.00,,SCT024,0.00,0.00,VWS V14.00,2013-06-27 08:38:00,
2013-06-27 04:43:00,78.9,74.7,29.94,South,173,0.0,0.0,87,0.00,,SCT024,0.00,0.00,VWS V14.00,2013-06-27 08:43:00,
2013-06-27 04:48:00,78.9,75.1,29.94,South,173,0.0,0.0,88,0.00,,SCT024,0.00,0.00,VWS V14.00,2013-06-27 08:48:00,
2013-06-27 04:53:00,78.8,74.6,29.94,South,173,0.0,0.0,87,0.00,,SCT024,0.00,0.00,VWS V14.00,2013-06-27 08:53:00,
2013-06-27 04:58:00,78.7,74.8,29.94,South,173,0.0,0.0,88,0.00,,SCT024,0.00,0.00,VWS V14.00,2013-06-27 08:58:00,
2013-06-27 05:03:00,78.6,74.8,29.94,South,173,0.0,0.0,88,0.00,,SCT024,0.00,0.00,VWS V14.00,2013-06-27 09:03:00,
2013-06-27 05:08:00,78.5,74.7,29.95,South,173,0.0,0.0,88,0.00,,SCT024,0.00,0.00,VWS V14.00,2013-06-27 09:08:00,
2013-06-27 05:13:00,78.4,74.6,29.95,South,173,0.0,0.0,88,0.00,,SCT024,0.00,0.00,VWS V14.00,2013-06-27 09:13:00,
2013-06-27 05:19:00,78.4,74.6,29.95,South,173,0.0,0.0,88,0.00,,SCT024,0.00,0.00,VWS V14.00,2013-06-27 09:19:00,
2013-06-27 05:24:00,78.4,74.6,29.95,South,173,0.0,0.0,88,0.00,,SCT024,0.00,0.00,VWS V14.00,2013-06-27 09:24:00,
2013-06-27 05:29:00,78.3,74.5,29.95,South,173,0.0,0.0,88,0.00,,SCT024,0.00,0.00,VWS V14.00,2013-06-27 09:29:00,
2013-06-27 05:34:00,78.3,74.5,29.96,South,173,0.0,0.0,88,0.00,,SCT024,0.00,0.00,VWS V14.00,2013-06-27 09:34:00,
2013-06-27 05:39:00,78.2,74.4,29.96,South,173,0.0,0.0,88,0.00,,SCT024,0.00,0.00,VWS V14.00,2013-06-27 09:39:00,
2013-06-27 05:44:00,78.2,74.4,29.96,South,173,0.0,0.0,88,0.00,,SCT024,0.00,0.00,VWS V14.00,2013-06-27 09:44:00,
2013-06-27 05:49:00,78.2,74.4,29.96,South,173,0.0,0.0,88,0.00,,SCT024,0.00,0.00,VWS V14.00,2013-06-27 09:49:00,
2013-06-27 05:54:00,78.2,74.7,29.96,South,173,0.0,0.0,89,0.00,,SCT024,0.00,0.00,VWS V14.00,2013-06-27 09:54:00,
2013-06-27 05:59:00,78.1,74.3,29.96,South,173,0.0,0.0,88,0.00,,SCT024,0.00,0.00,VWS V14.00,2013-06-27 09:59:00,
2013-06-27 06:04:00,78.0,74.5,29.96,South,173,0.0,0.0,89,0.00,,SCT024,0.00,0.00,VWS V14.00,2013-06-27 10:04:00,
2013-06-27 06:09:00,78.0,74.5,29.96,South,173,0.0,0.0,89,0.00,,SCT024,0.00,0.00,VWS V14.00,2013-06-27 10:09:00,
2013-06-27 06:14:00,78.0,74.5,29.97,South,173,0.0,0.0,89,0.00,,SCT024,0.00,0.00,VWS V14.00,2013-06-27 10:14:00,
2013-06-27 06:19:00,78.0,74.5,29.96,South,173,0.0,0.0,89,0.00,,SCT024,0.00,0.00,VWS V14.00,2013-06-27 10:19:00,
2013-06-27 06:24:00,78.0,74.5,29.96,South,176,0.0,0.0,89,0.00,,SCT024,0.00,0.00,VWS V14.00,2013-06-27 10:24:00,
2013-06-27 06:29:00,78.0,74.5,29.97,South,176,0.0,0.0,89,0.00,,SCT024,0.00,0.00,VWS V14.00,2013-06-27 10:29:00,
2013-06-27 06:34:00,78.0,74.5,29.97,South,176,0.0,0.0,89,0.00,,SCT024,0.00,0.00,VWS V14.00,2013-06-27 10:34:00,
2013-06-27 06:39:00,78.0,74.5,29.96,South,176,0.0,0.0,89,0.00,,SCT024,0.00,0.00,VWS V14.00,2013-06-27 10:39:00,
2013-06-27 06:44:00,77.9,74.4,29.97,South,176,0.0,0.0,89,0.00,,SCT024,0.00,5.00,VWS V14.00,2013-06-27 10:44:00,
2013-06-27 06:49:00,78.0,74.5,29.97,South,176,0.0,0.0,89,0.00,,SCT024,0.00,9.00,VWS V14.00,2013-06-27 10:49:00,
2013-06-27 06:54:00,78.0,74.5,29.97,South,176,0.0,0.0,89,0.00,,SCT024,0.00,11.00,VWS V14.00,2013-06-27 10:54:00,
2013-06-27 06:59:00,78.1,74.6,29.97,South,176,0.0,0.0,89,0.00,,SCT024,0.00,12.00,VWS V14.00,2013-06-27 10:59:00,
2013-06-27 07:04:00,78.1,74.6,29.96,South,176,0.0,0.0,89,0.00,,SCT024,0.00,26.00,VWS V14.00,2013-06-27 11:04:00,
2013-06-27 07:09:00,78.2,74.7,29.97,South,176,0.0,0.0,89,0.00,,SCT024,0.00,21.00,VWS V14.00,2013-06-27 11:09:00,
2013-06-27 07:14:00,78.2,74.7,29.97,South,176,0.0,0.0,89,0.00,,SCT024,0.00,28.00,VWS V14.00,2013-06-27 11:14:00,
2013-06-27 07:19:00,78.4,74.9,29.96,South,176,0.0,0.0,89,0.00,,SCT024,0.00,35.00,VWS V14.00,2013-06-27 11:19:00,
2013-06-27 07:24:00,78.6,75.1,29.97,SSW,207,0.0,0.0,89,0.00,,SCT024,0.00,179.00,VWS V14.00,2013-06-27 11:24:00,
2013-06-27 07:29:00,78.9,75.4,29.97,SSW,207,0.0,0.0,89,0.00,,SCT024,0.00,237.00,VWS V14.00,2013-06-27 11:29:00,
2013-06-27 07:34:00,79.3,75.8,29.97,SSW,202,0.0,0.0,89,0.00,,SCT025TCU,0.01,246.00,VWS V14.00,2013-06-27 11:34:00,
2013-06-27 07:39:00,79.9,76.0,29.97,SSW,202,0.0,0.0,88,0.00,,SCT025TCU,0.01,204.00,VWS V14.00,2013-06-27 11:39:00,
2013-06-27 07:44:00,80.2,76.0,29.98,SSW,202,0.0,0.0,87,0.00,,SCT025TCU,0.01,188.00,VWS V14.00,2013-06-27 11:44:00,
2013-06-27 07:49:00,80.6,76.4,29.98,SSW,202,0.0,0.0,87,0.00,,SCT025TCU,0.01,265.00,VWS V14.00,2013-06-27 11:49:00,
2013-06-27 07:54:00,81.2,76.6,29.98,SSW,202,0.0,0.0,86,0.00,,SCT025TCU,0.01,271.00,VWS V14.00,2013-06-27 11:54:00,
2013-06-27 08:00:00,81.8,76.8,29.98,SSW,202,0.0,1.0,85,0.00,,SCT025TCU,0.01,278.00,VWS V14.00,2013-06-27 12:00:00,
2013-06-27 08:05:00,82.5,76.8,29.98,SSW,202,2.0,3.0,83,0.00,,SCT025TCU,0.01,227.00,VWS V14.00,2013-06-27 12:05:00,
2013-06-27 08:10:00,83.0,76.9,29.98,SSW,202,2.0,2.0,82,0.00,,SCT025TCU,0.01,265.00,VWS V14.00,2013-06-27 12:10:00,
2013-06-27 08:15:00,83.6,76.4,29.99,SSE,165,0.0,2.0,79,0.00,,SCT025TCU,0.01,267.00,VWS V14.00,2013-06-27 12:15:00,
2013-06-27 08:20:00,83.9,76.3,29.99,SSE,165,0.0,1.0,78,0.00,,SCT025TCU,0.01,116.00,VWS V14.00,2013-06-27 12:20:00,
2013-06-27 08:25:00,84.1,76.5,29.99,SSE,165,2.0,4.0,78,0.00,,SCT025TCU,0.01,83.00,VWS V14.00,2013-06-27 12:25:00,
2013-06-27 08:30:00,83.8,76.6,29.99,SSE,165,3.0,3.0,79,0.00,,SCT025TCU,0.01,70.00,VWS V14.00,2013-06-27 12:30:00,
2013-06-27 08:35:00,83.6,76.0,29.99,SSE,166,2.0,3.0,78,0.00,,FEW025TCU,0.01,62.00,VWS V14.00,2013-06-27 12:35:00,
2013-06-27 08:40:00,83.4,75.8,29.99,SSE,166,3.0,4.0,78,0.00,,FEW025TCU,0.01,58.00,VWS V14.00,2013-06-27 12:40:00,
2013-06-27 08:45:00,83.3,76.1,30.00,SSE,167,3.0,5.0,79,0.00,,FEW025TCU,0.01,54.00,VWS V14.00,2013-06-27 12:45:00,
2013-06-27 08:50:00,83.2,76.0,30.00,SSE,155,4.0,5.0,79,0.00,,FEW025TCU,0.01,51.00,VWS V14.00,2013-06-27 12:50:00,
2013-06-27 08:55:00,83.2,76.0,30.00,SSE,157,0.0,0.0,79,0.00,,FEW025TCU,0.01,54.00,VWS V14.00,2013-06-27 12:55:00,
2013-06-27 09:00:00,83.1,75.5,30.00,SSE,159,0.0,1.0,78,0.00,,FEW025TCU,0.01,60.00,VWS V14.00,2013-06-27 13:00:00,
2013-06-27 09:05:00,83.2,75.6,30.00,SSE,159,0.0,0.0,78,0.00,,FEW025TCU,0.01,69.00,VWS V14.00,2013-06-27 13:05:00,
2013-06-27 09:10:00,83.2,75.6,30.00,SSE,160,0.0,3.0,78,0.00,,FEW025TCU,0.01,81.00,VWS V14.00,2013-06-27 13:10:00,
2013-06-27 09:15:00,83.4,75.8,30.00,SSE,160,0.0,3.0,78,0.00,,FEW025TCU,0.01,97.00,VWS V14.00,2013-06-27 13:15:00,
2013-06-27 09:20:00,83.6,76.0,30.00,SSE,160,0.0,1.0,78,0.00,,FEW025TCU,0.01,104.00,VWS V14.00,2013-06-27 13:20:00,
2013-06-27 09:25:00,83.8,75.8,30.00,SSE,160,1.0,4.0,77,0.00,,FEW025TCU,0.01,114.00,VWS V14.00,2013-06-27 13:25:00,
2013-06-27 09:30:00,84.0,75.6,29.99,SSE,164,0.0,5.0,76,0.00,,FEW025TCU,0.01,111.00,VWS V14.00,2013-06-27 13:30:00,
2013-06-27 09:35:00,84.1,75.7,29.99,SSE,164,1.0,3.0,76,0.00,,SCT025TCU,0.01,186.00,VWS V14.00,2013-06-27 13:35:00,
2013-06-27 09:40:00,84.3,75.9,29.99,SSE,164,3.0,3.0,76,0.00,,SCT025TCU,0.01,223.00,VWS V14.00,2013-06-27 13:40:00,
2013-06-27 09:45:00,84.7,76.3,29.99,SSE,164,3.0,5.0,76,0.00,,SCT025TCU,0.01,265.00,VWS V14.00,2013-06-27 13:45:00,
2013-06-27 09:50:00,85.5,75.9,29.99,SSE,161,4.0,6.0,73,0.00,,SCT025TCU,0.01,234.00,VWS V14.00,2013-06-27 13:50:00,
2013-06-27 09:55:00,85.9,76.2,29.99,SSE,161,3.0,3.0,73,0.00,,SCT025TCU,0.01,128.00,VWS V14.00,2013-06-27 13:55:00,
2013-06-27 10:00:00,85.8,75.7,29.99,SSE,161,4.0,5.0,72,0.00,,SCT025TCU,0.01,142.00,VWS V14.00,2013-06-27 14:00:00,
2013-06-27 10:05:00,85.8,75.7,29.99,SSE,161,2.0,4.0,72,0.00,,SCT025TCU,0.01,134.00,VWS V14.00,2013-06-27 14:05:00,
2013-06-27 10:10:00,85.8,75.7,29.99,SSE,161,0.0,0.0,72,0.00,,SCT025TCU,0.01,179.00,VWS V14.00,2013-06-27 14:10:00,
2013-06-27 10:15:00,85.8,75.7,29.99,SSE,161,0.0,4.0,72,0.00,,SCT025TCU,0.01,130.00,VWS V14.00,2013-06-27 14:15:00,
2013-06-27 10:20:00,85.8,75.3,29.99,SSE,162,0.0,1.0,71,0.00,,SCT025TCU,0.01,142.00,VWS V14.00,2013-06-27 14:20:00,
2013-06-27 10:25:00,85.9,76.2,29.99,SSE,163,0.0,3.0,73,0.00,,SCT025TCU,0.01,287.00,VWS V14.00,2013-06-27 14:25:00,
2013-06-27 10:30:00,86.4,76.7,29.99,SSE,159,3.0,5.0,73,0.00,,SCT025TCU,0.01,308.00,VWS V14.00,2013-06-27 14:30:00,
2013-06-27 10:35:00,86.4,75.9,29.99,SSE,154,3.0,5.0,71,0.00,,SCT025TCU,0.01,163.00,VWS V14.00,2013-06-27 14:35:00,
2013-06-27 10:40:00,86.2,75.7,29.99,SSE,151,5.0,5.0,71,0.00,,SCT025TCU,0.01,202.00,VWS V14.00,2013-06-27 14:40:00,
2013-06-27 10:41:00,86.2,75.7,29.99,SSE,150,5.0,5.0,71,0.00,,SCT025TCU,0.01,188.00,VWS V14.00,2013-06-27 14:41:00,
2013-06-27 10:46:00,86.0,75.1,29.99,SSE,149,3.0,3.0,70,0.00,,SCT025TCU,0.01,302.00,VWS V14.00,2013-06-27 14:46:00,
2013-06-27 10:51:00,86.4,75.0,29.99,SSE,150,0.0,5.0,69,0.00,,SCT025TCU,0.01,294.00,VWS V14.00,2013-06-27 14:51:00,
2013-06-27 10:56:00,86.7,74.9,29.99,SE,126,2.0,6.0,68,0.00,,SCT025TCU,0.01,290.00,VWS V14.00,2013-06-27 14:56:00,
2013-06-27 11:01:00,87.0,75.2,29.99,SE,128,0.0,0.0,68,0.00,,SCT025TCU,0.01,149.00,VWS V14.00,2013-06-27 15:01:00,
2013-06-27 11:06:00,87.3,75.0,29.99,SE,132,2.0,6.0,67,0.00,,SCT025TCU,0.01,113.00,VWS V14.00,2013-06-27 15:06:00,
2013-06-27 11:11:00,87.3,74.6,30.00,South,169,5.0,7.0,66,0.00,,SCT025TCU,0.01,72.00,VWS V14.00,2013-06-27 15:11:00,
2013-06-27 11:16:00,86.7,75.3,30.00,West,266,3.0,11.0,69,0.00,,SCT025TCU,0.01,30.00,VWS V14.00,2013-06-27 15:16:00,
2013-06-27 11:21:00,84.3,75.1,30.00,West,269,4.0,5.0,74,0.00,,SCT025TCU,0.01,19.00,VWS V14.00,2013-06-27 15:21:00,
2013-06-27 11:26:00,82.5,74.9,30.00,West,273,4.0,7.0,78,0.00,,SCT025TCU,0.01,12.00,VWS V14.00,2013-06-27 15:26:00,
2013-06-27 11:31:00,81.3,74.9,30.00,West,275,3.0,5.0,81,0.00,,SCT025TCU,0.01,9.00,VWS V14.00,2013-06-27 15:31:00,
2013-06-27 11:36:00,80.0,73.7,30.01,NNW,348,5.0,11.0,81,0.00,,SCT025TCU,0.01,7.00,VWS V14.00,2013-06-27 15:36:00,
2013-06-27 11:41:00,78.7,73.8,30.01,North,355,10.0,12.0,85,0.00,,SCT025TCU,0.01,7.00,VWS V14.00,2013-06-27 15:41:00,
2013-06-27 11:46:00,77.4,72.9,30.01,NE,51,16.0,18.0,86,0.00,,SCT025TCU,0.01,9.00,VWS V14.00,2013-06-27 15:46:00,
2013-06-27 11:51:00,76.0,70.8,30.01,NE,36,7.0,11.0,84,0.00,,SCT025TCU,0.01,11.00,VWS V14.00,2013-06-27 15:51:00,
2013-06-27 11:56:00,75.2,70.4,30.01,ENE,57,7.0,11.0,85,0.00,,SCT025TCU,0.01,11.00,VWS V14.00,2013-06-27 15:56:00,
2013-06-27 12:01:00,74.7,70.2,30.01,SE,128,4.0,12.0,86,0.00,,SCT025TCU,0.01,14.00,VWS V14.00,2013-06-27 16:01:00,
2013-06-27 12:06:00,74.4,70.3,30.01,ESE,123,6.0,6.0,87,0.00,,SCT025TCU,0.01,16.00,VWS V14.00,2013-06-27 16:06:00,
2013-06-27 12:11:00,74.5,70.4,30.01,SE,134,4.0,5.0,87,0.00,,SCT025TCU,0.01,19.00,VWS V14.00,2013-06-27 16:11:00,
2013-06-27 12:16:00,75.1,70.6,30.01,ENE,71,6.0,10.0,86,0.00,,SCT025TCU,0.01,21.00,VWS V14.00,2013-06-27 16:16:00,
2013-06-27 12:21:00,75.7,70.9,30.01,NE,38,4.0,7.0,85,0.00,,SCT025TCU,0.01,26.00,VWS V14.00,2013-06-27 16:21:00,
2013-06-27 12:26:00,75.8,71.3,30.01,ENE,74,3.0,6.0,86,0.00,,SCT025TCU,0.01,35.00,VWS V14.00,2013-06-27 16:26:00,
2013-06-27 12:31:00,75.6,70.8,30.00,SE,136,5.0,6.0,85,0.00,,SCT025TCU,0.01,44.00,VWS V14.00,2013-06-27 16:31:00,
2013-06-27 12:36:00,75.3,70.1,30.00,SE,137,0.0,3.0,84,0.00,,BKN025,0.01,54.00,VWS V14.00,2013-06-27 16:36:00,
2013-06-27 12:41:00,75.5,70.7,30.00,SE,137,0.0,1.0,85,0.00,,BKN025,0.01,70.00,VWS V14.00,2013-06-27 16:41:00,
2013-06-27 12:46:00,75.7,70.9,29.99,SE,138,0.0,5.0,85,0.00,,BKN025,0.01,100.00,VWS V14.00,2013-06-27 16:46:00,
2013-06-27 12:51:00,76.3,71.8,29.99,SE,142,3.0,5.0,86,0.00,,BKN025,0.02,190.00,VWS V14.00,2013-06-27 16:51:00,
2013-06-27 12:56:00,77.0,71.8,29.99,SE,142,0.0,1.0,84,0.00,,BKN025,0.02,179.00,VWS V14.00,2013-06-27 16:56:00,
2013-06-27 13:01:00,77.8,72.6,29.98,SE,142,2.0,5.0,84,0.00,,BKN025,0.02,199.00,VWS V14.00,2013-06-27 17:01:00,
2013-06-27 13:06:00,78.8,72.8,29.98,SE,143,3.0,4.0,82,0.00,,BKN025,0.02,148.00,VWS V14.00,2013-06-27 17:06:00,
2013-06-27 13:11:00,79.8,73.8,29.98,SE,146,3.0,7.0,82,0.00,,BKN025,0.02,149.00,VWS V14.00,2013-06-27 17:11:00,
2013-06-27 13:17:00,80.5,73.8,29.98,SE,146,0.0,5.0,80,0.00,,BKN025,0.02,135.00,VWS V14.00,2013-06-27 17:17:00,
2013-06-27 13:22:00,81.2,74.4,29.98,SE,146,0.0,0.0,80,0.00,,BKN025,0.02,132.00,VWS V14.00,2013-06-27 17:22:00,
2013-06-27 13:27:00,81.7,74.6,29.97,SE,146,2.0,4.0,79,0.00,,BKN025,0.02,125.00,VWS V14.00,2013-06-27 17:27:00,
2013-06-27 13:32:00,82.3,75.5,29.97,SE,146,3.0,8.0,80,0.00,,BKN025,0.02,125.00,VWS V14.00,2013-06-27 17:32:00,
2013-06-27 13:37:00,82.6,75.4,29.97,SE,143,3.0,4.0,79,0.00,,FEW040,0.02,132.00,VWS V14.00,2013-06-27 17:37:00,
2013-06-27 13:42:00,83.2,76.4,29.97,SSE,154,0.0,4.0,80,0.00,,FEW040,0.02,218.00,VWS V14.00,2013-06-27 17:42:00,
2013-06-27 13:47:00,83.9,76.7,29.97,SSE,150,5.0,9.0,79,0.00,,FEW040,0.02,271.00,VWS V14.00,2013-06-27 17:47:00,
2013-06-27 13:52:00,84.7,77.1,29.98,SSE,157,3.0,6.0,78,0.00,,FEW040,0.02,274.00,VWS V14.00,2013-06-27 17:52:00,
2013-06-27 13:57:00,85.4,76.6,29.97,South,183,6.0,9.0,75,0.00,,FEW040,0.02,118.00,VWS V14.00,2013-06-27 17:57:00,
2013-06-27 14:02:00,85.4,76.2,29.97,SSW,200,4.0,11.0,74,0.00,,FEW040,0.02,141.00,VWS V14.00,2013-06-27 18:02:00,
2013-06-27 14:07:00,85.7,76.1,29.97,SSE,157,1.0,5.0,73,0.00,,FEW040,0.02,292.00,VWS V14.00,2013-06-27 18:07:00,
2013-06-27 14:12:00,86.1,76.0,29.97,SSE,152,4.0,11.0,72,0.00,,FEW040,0.02,139.00,VWS V14.00,2013-06-27 18:12:00,
2013-06-27 14:17:00,86.0,75.9,29.97,SE,137,4.0,8.0,72,0.00,,FEW040,0.02,158.00,VWS V14.00,2013-06-27 18:17:00,
2013-06-27 14:22:00,85.6,75.1,29.96,SSE,165,6.0,10.0,71,0.00,,FEW040,0.02,204.00,VWS V14.00,2013-06-27 18:22:00,
2013-06-27 14:27:00,85.4,75.8,29.96,South,171,4.0,5.0,73,0.00,,FEW040,0.02,137.00,VWS V14.00,2013-06-27 18:27:00,
2013-06-27 14:32:00,85.9,76.2,29.96,SSE,161,4.0,6.0,73,0.00,,FEW040,0.02,225.00,VWS V14.00,2013-06-27 18:32:00,
2013-06-27 14:37:00,86.2,75.3,29.97,SSE,167,5.0,5.0,70,0.00,,FEW040,0.02,213.00,VWS V14.00,2013-06-27 18:37:00,
2013-06-27 14:42:00,86.5,76.0,29.97,South,176,3.0,9.0,71,0.00,,FEW040,0.02,218.00,VWS V14.00,2013-06-27 18:42:00,
2013-06-27 14:47:00,86.7,75.8,29.97,SSE,163,6.0,7.0,70,0.00,,FEW040,0.02,206.00,VWS V14.00,2013-06-27 18:47:00,
2013-06-27 14:52:00,86.9,75.5,29.96,SSE,166,7.0,8.0,69,0.00,,FEW040,0.02,144.00,VWS V14.00,2013-06-27 18:52:00,
2013-06-27 14:57:00,86.5,75.1,29.96,South,183,9.0,9.0,69,0.00,,FEW040,0.02,123.00,VWS V14.00,2013-06-27 18:57:00,
2013-06-27 15:02:00,86.3,75.4,29.96,SSE,167,0.0,2.0,70,0.00,,FEW040,0.02,120.00,VWS V14.00,2013-06-27 19:02:00,
2013-06-27 15:07:00,86.0,75.1,29.97,SSE,161,3.0,6.0,70,0.00,,FEW040,0.02,111.00,VWS V14.00,2013-06-27 19:07:00,
2013-06-27 15:12:00,86.0,75.1,29.97,SSE,164,5.0,7.0,70,0.00,,FEW040,0.02,121.00,VWS V14.00,2013-06-27 19:12:00,
2013-06-27 15:17:00,86.1,75.2,29.97,SSE,164,4.0,6.0,70,0.00,,FEW040,0.02,142.00,VWS V14.00,2013-06-27 19:17:00,
2013-06-27 15:22:00,86.4,75.5,29.97,South,176,3.0,4.0,70,0.00,,FEW040,0.02,118.00,VWS V14.00,2013-06-27 19:22:00,
2013-06-27 15:27:00,86.3,75.4,29.97,South,183,7.0,7.0,70,0.00,,FEW040,0.02,125.00,VWS V14.00,2013-06-27 19:27:00,
2013-06-27 15:32:00,86.2,75.7,29.96,South,185,3.0,5.0,71,0.00,,FEW040,0.02,130.00,VWS V14.00,2013-06-27 19:32:00,
2013-06-27 15:37:00,86.1,75.6,29.96,SSE,160,3.0,5.0,71,0.00,,BKN024,0.02,130.00,VWS V14.00,2013-06-27 19:37:00,
2013-06-27 15:42:00,86.0,76.3,29.96,SSE,163,9.0,9.0,73,0.00,,BKN024,0.02,139.00,VWS V14.00,2013-06-27 19:42:00,
2013-06-27 15:47:00,85.9,76.2,29.95,South,172,6.0,6.0,73,0.00,,BKN024,0.02,113.00,VWS V14.00,2013-06-27 19:47:00,
2013-06-27 15:52:00,85.8,76.6,29.95,SSE,164,9.0,10.0,74,0.00,,BKN024,0.02,118.00,VWS V14.00,2013-06-27 19:52:00,
2013-06-27 15:57:00,85.6,76.4,29.94,SSE,164,5.0,11.0,74,0.00,,BKN024,0.02,118.00,VWS V14.00,2013-06-27 19:57:00,
2013-06-27 16:02:00,85.4,76.6,29.94,South,174,5.0,12.0,75,0.00,,BKN024,0.02,111.00,VWS V14.00,2013-06-27 20:02:00,
2013-06-27 16:07:00,85.2,76.0,29.94,SSE,162,8.0,14.0,74,0.00,,BKN024,0.02,128.00,VWS V14.00,2013-06-27 20:07:00,
2013-06-27 16:12:00,85.2,76.0,29.94,SSE,161,10.0,12.0,74,0.00,,BKN024,0.02,167.00,VWS V14.00,2013-06-27 20:12:00,
2013-06-27 16:17:00,85.2,76.0,29.94,South,175,0.0,10.0,74,0.00,,BKN024,0.02,172.00,VWS V14.00,2013-06-27 20:17:00,
2013-06-27 16:22:00,85.7,76.5,29.94,South,173,3.0,5.0,74,0.00,,BKN024,0.02,163.00,VWS V14.00,2013-06-27 20:22:00,
2013-06-27 16:27:00,85.7,75.6,29.94,SSE,162,7.0,10.0,72,0.00,,BKN024,0.02,144.00,VWS V14.00,2013-06-27 20:27:00,
2013-06-27 16:33:00,85.6,76.0,29.94,SSE,167,3.0,3.0,73,0.00,,FEW024,0.02,153.00,VWS V14.00,2013-06-27 20:33:00,
2013-06-27 16:38:00,85.9,75.8,29.94,SSE,160,5.0,9.0,72,0.00,,FEW024,0.02,97.00,VWS V14.00,2013-06-27 20:38:00,
2013-06-27 16:43:00,85.6,75.1,29.93,SSE,161,12.0,12.0,71,0.00,,FEW024,0.02,69.00,VWS V14.00,2013-06-27 20:43:00,
2013-06-27 16:48:00,85.2,75.6,29.93,SSE,153,5.0,10.0,73,0.00,,FEW024,0.02,56.00,VWS V14.00,2013-06-27 20:48:00,
2013-06-27 16:53:00,84.9,74.4,29.93,SSE,165,7.0,7.0,71,0.00,,FEW024,0.02,54.00,VWS V14.00,2013-06-27 20:53:00,
2013-06-27 16:58:00,84.8,75.2,29.92,South,180,6.0,9.0,73,0.00,,FEW024,0.02,53.00,VWS V14.00,2013-06-27 20:58:00,
2013-06-27 17:03:00,84.7,75.1,29.93,SSE,168,4.0,6.0,73,0.00,,FEW024,0.02,56.00,VWS V14.00,2013-06-27 21:03:00,
2013-06-27 17:08:00,84.7,75.5,29.93,SSE,163,2.0,6.0,74,0.00,,FEW024,0.02,56.00,VWS V14.00,2013-06-27 21:08:00,
2013-06-27 17:13:00,84.5,75.7,29.94,South,173,5.0,7.0,75,0.00,,FEW024,0.02,54.00,VWS V14.00,2013-06-27 21:13:00,
2013-06-27 17:18:00,84.3,75.5,29.94,South,178,4.0,11.0,75,0.00,,FEW024,0.02,54.00,VWS V14.00,2013-06-27 21:18:00,
2013-06-27 17:23:00,84.1,75.3,29.94,South,171,3.0,5.0,75,0.00,,FEW024,0.02,56.00,VWS V14.00,2013-06-27 21:23:00,
2013-06-27 17:28:00,84.1,74.9,29.94,South,171,4.0,6.0,74,0.00,,FEW024,0.02,56.00,VWS V14.00,2013-06-27 21:28:00,
2013-06-27 17:33:00,84.1,74.5,29.94,SSE,165,4.0,6.0,73,0.00,,FEW024,0.02,54.00,VWS V14.00,2013-06-27 21:33:00,
2013-06-27 17:38:00,84.2,75.0,29.94,SSE,148,0.0,9.0,74,0.00,,FEW024,0.02,51.00,VWS V14.00,2013-06-27 21:38:00,
2013-06-27 17:43:00,84.1,75.3,29.93,SSE,156,3.0,6.0,75,0.00,,FEW024,0.02,49.00,VWS V14.00,2013-06-27 21:43:00,
2013-06-27 17:48:00,84.1,75.3,29.93,SSE,151,4.0,7.0,75,0.00,,FEW024,0.02,46.00,VWS V14.00,2013-06-27 21:48:00,
2013-06-27 17:53:00,83.9,75.1,29.93,SSE,153,6.0,9.0,75,0.00,,FEW024,0.02,42.00,VWS V14.00,2013-06-27 21:53:00,
2013-06-27 17:59:00,83.8,75.0,29.93,SSE,154,6.0,8.0,75,0.00,,FEW024,0.02,39.00,VWS V14.00,2013-06-27 21:59:00,
2013-06-27 18:04:00,83.6,75.2,29.93,SSE,163,0.0,3.0,76,0.00,,FEW024,0.02,37.00,VWS V14.00,2013-06-27 22:04:00,
2013-06-27 18:09:00,83.7,75.3,29.94,South,169,9.0,9.0,76,0.00,,FEW024,0.02,33.00,VWS V14.00,2013-06-27 22:09:00,
2013-06-27 18:14:00,83.5,75.1,29.93,South,174,5.0,6.0,76,0.00,,FEW024,0.02,32.00,VWS V14.00,2013-06-27 22:14:00,
2013-06-27 18:19:00,83.4,75.1,29.93,South,173,3.0,5.0,76,0.00,,FEW024,0.02,30.00,VWS V14.00,2013-06-27 22:19:00,
2013-06-27 18:24:00,83.2,74.8,29.93,South,178,2.0,3.0,76,0.00,,FEW024,0.02,28.00,VWS V14.00,2013-06-27 22:24:00,
2013-06-27 18:29:00,83.2,74.8,29.93,South,183,4.0,5.0,76,0.00,,FEW024,0.02,26.00,VWS V14.00,2013-06-27 22:29:00,
2013-06-27 18:34:00,83.1,74.8,29.93,South,185,9.0,9.0,76,0.00,,FEW024,0.02,26.00,VWS V14.00,2013-06-27 22:34:00,
2013-06-27 18:39:00,83.1,74.8,29.93,South,185,0.0,3.0,76,0.00,,FEW024,0.02,25.00,VWS V14.00,2013-06-27 22:39:00,
2013-06-27 18:45:00,83.1,74.8,29.93,South,185,0.0,3.0,76,0.00,,FEW024,0.02,25.00,VWS V14.00,2013-06-27 22:45:00,
2013-06-27 18:50:00,83.1,74.8,29.93,South,181,3.0,8.0,76,0.00,,FEW024,0.02,23.00,VWS V14.00,2013-06-27 22:50:00,
2013-06-27 18:55:00,83.1,74.8,29.93,South,178,7.0,7.0,76,0.00,,FEW024,0.02,21.00,VWS V14.00,2013-06-27 22:55:00,
2013-06-27 19:00:00,83.0,74.7,29.92,South,169,5.0,7.0,76,0.00,,FEW024,0.02,21.00,VWS V14.00,2013-06-27 23:00:00,
2013-06-27 19:05:00,83.0,75.1,29.92,SSE,167,3.0,6.0,77,0.00,,FEW024,0.02,19.00,VWS V14.00,2013-06-27 23:05:00,
2013-06-27 19:10:00,82.9,74.6,29.92,South,171,2.0,4.0,76,0.00,,FEW024,0.02,18.00,VWS V14.00,2013-06-27 23:10:00,
2013-06-27 19:15:00,82.9,74.6,29.92,South,173,0.0,1.0,76,0.00,,FEW024,0.02,16.00,VWS V14.00,2013-06-27 23:15:00,
2013-06-27 19:20:00,82.8,74.5,29.92,South,174,4.0,7.0,76,0.00,,FEW024,0.02,14.00,VWS V14.00,2013-06-27 23:20:00,
2013-06-27 19:26:00,82.7,74.0,29.92,South,174,4.0,5.0,75,0.00,,FEW024,0.02,12.00,VWS V14.00,2013-06-27 23:26:00,
2013-06-27 19:31:00,82.7,74.0,29.92,South,174,2.0,3.0,75,0.00,,FEW024,0.02,11.00,VWS V14.00,2013-06-27 23:31:00,
2013-06-27 19:36:00,82.6,73.9,29.91,South,174,3.0,3.0,75,0.00,,CLR,0.02,9.00,VWS V14.00,2013-06-27 23:36:00,
2013-06-27 19:41:00,82.6,73.9,29.91,South,174,2.0,4.0,75,0.00,,CLR,0.02,7.00,VWS V14.00,2013-06-27 23:41:00,
2013-06-27 19:46:00,82.5,73.8,29.92,South,174,0.0,4.0,75,0.00,,CLR,0.02,5.00,VWS V14.00,2013-06-27 23:46:00,
2013-06-27 19:51:00,82.5,73.8,29.92,South,174,1.0,1.0,75,0.00,,CLR,0.02,5.00,VWS V14.00,2013-06-27 23:51:00,
2013-06-27 19:56:00,82.5,73.8,29.92,South,175,1.0,5.0,75,0.00,,CLR,0.02,0.00,VWS V14.00,2013-06-27 23:56:00,
2013-06-27 20:01:00,82.4,73.7,29.92,South,175,2.0,5.0,75,0.00,,CLR,0.02,0.00,VWS V14.00,2013-06-28 00:01:00,
2013-06-27 20:07:00,82.4,73.7,29.92,South,175,0.0,0.0,75,0.00,,CLR,0.02,0.00,VWS V14.00,2013-06-28 00:07:00,
2013-06-27 20:12:00,82.3,74.0,29.92,South,175,0.0,0.0,76,0.00,,CLR,0.02,0.00,VWS V14.00,2013-06-28 00:12:00,
2013-06-27 20:17:00,82.3,74.0,29.92,South,175,0.0,0.0,76,0.00,,CLR,0.02,0.00,VWS V14.00,2013-06-28 00:17:00,
2013-06-27 20:22:00,82.2,73.9,29.93,South,175,0.0,0.0,76,0.00,,CLR,0.02,0.00,VWS V14.00,2013-06-28 00:22:00,
2013-06-27 20:27:00,82.2,73.9,29.93,South,175,0.0,0.0,76,0.00,,CLR,0.02,0.00,VWS V14.00,2013-06-28 00:27:00,
2013-06-27 20:32:00,82.2,73.9,29.93,South,175,0.0,0.0,76,0.00,,CLR,0.02,0.00,VWS V14.00,2013-06-28 00:32:00,
2013-06-27 20:37:00,82.1,74.2,29.93,South,175,0.0,0.0,77,0.00,,CLR,0.02,0.00,VWS V14.00,2013-06-28 00:37:00,
2013-06-27 20:42:00,82.1,74.2,29.93,South,175,4.0,4.0,77,0.00,,CLR,0.02,0.00,VWS V14.00,2013-06-28 00:42:00,
2013-06-27 20:47:00,82.1,74.6,29.93,South,175,0.0,0.0,78,0.00,,CLR,0.02,0.00,VWS V14.00,2013-06-28 00:47:00,
2013-06-27 20:52:00,82.0,74.5,29.93,South,175,2.0,5.0,78,0.00,,CLR,0.02,0.00,VWS V14.00,2013-06-28 00:52:00,
2013-06-27 20:57:00,82.0,74.8,29.93,South,175,0.0,1.0,79,0.00,,CLR,0.02,0.00,VWS V14.00,2013-06-28 00:57:00,
2013-06-27 21:03:00,81.9,74.8,29.92,South,175,2.0,2.0,79,0.00,,CLR,0.02,0.00,VWS V14.00,2013-06-28 01:03:00,
2013-06-27 21:08:00,81.8,75.0,29.92,South,175,0.0,0.0,80,0.00,,CLR,0.02,0.00,VWS V14.00,2013-06-28 01:08:00,
2013-06-27 21:13:00,81.7,74.9,29.92,South,175,0.0,1.0,80,0.00,,CLR,0.02,0.00,VWS V14.00,2013-06-28 01:13:00,
2013-06-27 21:18:00,81.6,74.8,29.92,South,175,0.0,4.0,80,0.00,,CLR,0.02,0.00,VWS V14.00,2013-06-28 01:18:00,
2013-06-27 21:23:00,81.5,75.1,29.92,South,175,0.0,0.0,81,0.00,,CLR,0.02,0.00,VWS V14.00,2013-06-28 01:23:00,
2013-06-27 21:28:00,81.4,75.0,29.93,South,175,0.0,0.0,81,0.00,,CLR,0.02,0.00,VWS V14.00,2013-06-28 01:28:00,
2013-06-27 21:34:00,81.3,74.9,29.93,South,175,0.0,0.0,81,0.00,,CLR,0.02,0.00,VWS V14.00,2013-06-28 01:34:00,
2013-06-27 21:39:00,81.2,75.2,29.93,South,175,0.0,0.0,82,0.00,,CLR,0.02,0.00,VWS V14.00,2013-06-28 01:39:00,
2013-06-27 21:44:00,81.1,75.1,29.93,South,175,0.0,0.0,82,0.00,,CLR,0.02,0.00,VWS V14.00,2013-06-28 01:44:00,
2013-06-27 21:49:00,81.1,75.1,29.93,South,175,0.0,0.0,82,0.00,,CLR,0.02,0.00,VWS V14.00,2013-06-28 01:49:00,
2013-06-27 21:54:00,81.0,75.0,29.93,South,175,0.0,0.0,82,0.00,,CLR,0.02,0.00,VWS V14.00,2013-06-28 01:54:00,
2013-06-27 21:59:00,80.9,75.3,29.94,South,175,0.0,4.0,83,0.00,,CLR,0.02,0.00,VWS V14.00,2013-06-28 01:59:00,
2013-06-27 22:04:00,80.9,75.3,29.94,South,175,0.0,0.0,83,0.00,,CLR,0.02,0.00,VWS V14.00,2013-06-28 02:04:00,
2013-06-27 22:09:00,80.8,75.2,29.94,South,175,0.0,0.0,83,0.00,,CLR,0.02,0.00,VWS V14.00,2013-06-28 02:09:00,
2013-06-27 22:14:00,80.7,75.4,29.94,South,175,0.0,0.0,84,0.00,,CLR,0.02,0.00,VWS V14.00,2013-06-28 02:14:00,
2013-06-27 22:19:00,80.6,75.3,29.94,South,175,0.0,0.0,84,0.00,,CLR,0.02,0.00,VWS V14.00,2013-06-28 02:19:00,
2013-06-27 22:24:00,80.5,75.2,29.94,South,175,0.0,0.0,84,0.00,,CLR,0.02,0.00,VWS V14.00,2013-06-28 02:24:00,
2013-06-27 22:29:00,80.5,75.2,29.95,South,175,0.0,0.0,84,0.00,,CLR,0.02,0.00,VWS V14.00,2013-06-28 02:29:00,
2013-06-27 22:34:00,80.4,75.1,29.94,South,175,0.0,0.0,84,0.00,,CLR,0.02,0.00,VWS V14.00,2013-06-28 02:34:00,
2013-06-27 22:40:00,80.4,75.1,29.94,South,175,0.0,0.0,84,0.00,,CLR,0.02,0.00,VWS V14.00,2013-06-28 02:40:00,
2013-06-27 22:45:00,80.3,75.0,29.94,South,175,0.0,0.0,84,0.00,,CLR,0.02,0.00,VWS V14.00,2013-06-28 02:45:00,
2013-06-27 22:50:00,80.2,75.3,29.94,South,175,0.0,0.0,85,0.00,,CLR,0.02,0.00,VWS V14.00,2013-06-28 02:50:00,
2013-06-27 22:55:00,80.1,75.2,29.94,South,175,0.0,0.0,85,0.00,,CLR,0.02,0.00,VWS V14.00,2013-06-28 02:55:00,
2013-06-27 23:00:00,80.1,75.2,29.94,South,175,0.0,0.0,85,0.00,,CLR,0.02,0.00,VWS V14.00,2013-06-28 03:00:00,
2013-06-27 23:06:00,80.0,75.1,29.94,South,175,0.0,0.0,85,0.00,,CLR,0.02,0.00,VWS V14.00,2013-06-28 03:06:00,
2013-06-27 23:11:00,79.9,75.3,29.95,South,175,0.0,0.0,86,0.00,,CLR,0.02,0.00,VWS V14.00,2013-06-28 03:11:00,
2013-06-27 23:16:00,79.9,75.3,29.95,South,175,0.0,0.0,86,0.00,,CLR,0.02,0.00,VWS V14.00,2013-06-28 03:16:00,
2013-06-27 23:22:00,79.9,75.3,29.95,South,175,0.0,2.0,86,0.00,,CLR,0.02,0.00,VWS V14.00,2013-06-28 03:22:00,
2013-06-27 23:27:00,79.9,75.3,29.95,South,175,0.0,0.0,86,0.00,,CLR,0.02,0.00,VWS V14.00,2013-06-28 03:27:00,
2013-06-27 23:32:00,79.9,75.3,29.95,South,175,0.0,0.0,86,0.00,,CLR,0.02,0.00,VWS V14.00,2013-06-28 03:32:00,
2013-06-27 23:37:00,79.8,75.2,29.95,South,175,0.0,0.0,86,0.00,,CLR,0.02,0.00,VWS V14.00,2013-06-28 03:37:00,
2013-06-27 23:42:00,79.8,75.2,29.95,South,175,0.0,0.0,86,0.00,,CLR,0.02,0.00,VWS V14.00,2013-06-28 03:42:00,
2013-06-27 23:47:00,79.7,75.2,29.95,South,175,0.0,0.0,86,0.00,,CLR,0.02,0.00,VWS V14.00,2013-06-28 03:47:00,
2013-06-27 23:52:00,79.6,75.1,29.95,South,175,0.0,0.0,86,0.00,,CLR,0.02,0.00,VWS V14.00,2013-06-28 03:52:00,
2013-06-27 23:57:00,79.6,75.1,29.96,South,175,0.0,0.0,86,0.00,,CLR,0.02,0.00,VWS V14.00,2013-06-28 03:57:00,